Notices

What's New in latest Release from April 7th, 2021:

- Updated Glossary, including Speed of Maximum Gust, and Total Hourly Precipitation

- Updated national and regional climate services offices contacts and prices information

- Addition of station inventory lists for 1981-2010, 1971-2000, and 1961-1990 Normals.

If you haven't already, please take our survey and provide feedback about our website: https://eccc.sondage-survey.ca/f/LanguageSelection.aspx?s=442ca660-fcf1-47c0-95a9-59707d6fd709

Hourly Data Report for December 23, 2019

CARBERRY CS
MANITOBA
Current Station Operator: ECCC - MSC

49°54'20.900" N
99°21'26.800" W
383.50 m
5010547
71170
WZE

Download Data

Hourly Data (December 2019)
Hourly Data Report for December 23, 2019
TIME
LST
Temp Definition
°C
Dew Point Definition
°C
Rel Hum Definition
%
Precip. Amount Definition
mm

Wind Dir Definition
10's deg

Wind Spd Definition
km/h
Visibility Definition
km
Stn Press Definition
kPa
Hmdx Definition


Wind Chill Definition


Weather Definition


00:00 -9.0 -9.7 94 0.0 20 2   97.29   -10 LegendNANA
01:00 -8.5 -9.3 94 0.0 11 1   97.31   -9 LegendNANA
02:00 -7.7 -9.4 88 0.0 7 8   97.41   -12 LegendNANA
03:00 -8.0 -11.1 78 0.0 6 10   97.41   -13 LegendNANA
04:00 -8.3 -11.5 78 0.0 7 10   97.43   -13 LegendNANA
05:00 -8.3 -11.4 78 0.0 6 8   97.44   -12 LegendNANA
06:00 -8.5 -11.1 82 0.0 8 11   97.41   -14 LegendNANA
07:00 -8.7 -10.0 90 0.0 6 10   97.45   -14 LegendNANA
08:00 -9.1 -10.3 91 0.0 6 13   97.35   -15 LegendNANA
09:00 -9.6 -11.3 87 0.0 10 6   97.40   -13 LegendNANA
10:00 -10.4 -13.1 80 0.0 13 12   97.48   -16 LegendNANA
11:00 -10.0 -13.3 77 0.0 14 8   97.50   -14 LegendNANA
12:00 -8.8 -12.9 72 0.0 13 6   97.44   -12 LegendNANA
13:00 -8.8 -12.9 72 0.0 14 5   97.35   -12 LegendNANA
14:00 -7.8 -12.4 70 0.0 12 9   97.22   -12 LegendNANA
15:00 -7.7 -12.6 68 0.0 10 11   97.13   -13 LegendNANA
16:00 -9.0 -13.3 71 0.0 9 11   97.06   -14 LegendNANA
17:00 -9.2 -13.0 74 0.0 7 9   97.02   -14 LegendNANA
18:00 -10.3 -13.0 80 0.0 8 12   96.95   -16 LegendNANA
19:00 -10.7 -13.0 83 0.0 9 16   96.80   -18 LegendNANA
20:00 -11.9 -13.7 86 0.0 10 9   96.81   -17 LegendNANA
21:00 -13.5 -14.6 91 0.0   0   96.74     LegendNANA
22:00 -13.2 -14.1 93 0.0 16 6   96.71   -17 LegendNANA
23:00 -12.1 -13.5 90 0.0 20 6   96.68   -16 LegendNANA

Notes on Data Quality.

Legend

  • E = Estimated
  • M = Missing
  • NA = Not Available*
  • [empty] = Indicates an unobserved value
Date modified: